timestamp,wind_dir_avg,wind_spd_avg,wind_spd_max_dir,wind_spd_gust,battery_voltage,lat,long
2023-11-16 00:04:00+00:00,55.0,9.06,57.0,10.68,12.41,47.59359,-54.27349
2023-11-16 00:14:00+00:00,37.0,9.66,45.0,11.33,12.33,47.59359,-54.27349
2023-11-16 00:24:00+00:00,31.0,8.19,40.0,9.21,12.33,47.59359,-54.27349
2023-11-16 00:34:00+00:00,15.0,9.37,15.0,10.27,12.33,47.59359,-54.27349
2023-11-16 00:44:00+00:00,24.0,8.43,23.0,9.28,12.33,47.59359,-54.27349
2023-11-16 00:54:00+00:00,26.0,8.15,23.0,9.35,12.33,47.59359,-54.27349
2023-11-16 01:04:00+00:00,21.0,8.88,25.0,10.06,12.33,47.59359,-54.27349
2023-11-16 01:14:01+00:00,25.0,7.05,18.0,8.34,12.33,47.59359,-54.27349
2023-11-16 01:24:01+00:00,22.0,7.92,25.0,8.9,12.33,47.59359,-54.27349
2023-11-16 01:34:01+00:00,23.0,8.18,24.0,9.62,12.33,47.59359,-54.27349
2023-11-16 01:44:01+00:00,22.0,8.81,23.0,9.95,12.33,47.59359,-54.27349
2023-11-16 01:54:01+00:00,18.0,7.96,23.0,9.38,12.33,47.59359,-54.27349
2023-11-16 02:04:01+00:00,26.0,8.76,28.0,9.88,12.33,47.59359,-54.27349
2023-11-16 02:14:01+00:00,14.0,6.06,19.0,7.25,12.33,47.59359,-54.27349
2023-11-16 02:24:01+00:00,21.0,6.54,28.0,7.42,12.33,47.59359,-54.27349
2023-11-16 02:34:01+00:00,52.0,7.39,67.0,9.34,12.33,47.59359,-54.27349
2023-11-16 02:44:01+00:00,58.0,4.25,66.0,5.05,12.33,47.59359,-54.27349
2023-11-16 02:54:01+00:00,41.0,7.66,48.0,9.18,12.33,47.59359,-54.27349
2023-11-16 03:04:01+00:00,45.0,4.87,41.0,6.02,12.33,47.59359,-54.27349
2023-11-16 03:14:00+00:00,49.0,5.8,42.0,7.55,12.33,47.59359,-54.27349
2023-11-16 03:24:00+00:00,51.0,7.83,61.0,10.32,12.33,47.59359,-54.27349
2023-11-16 03:34:00+00:00,54.0,5.11,37.0,6.87,12.33,47.59359,-54.27349
2023-11-16 03:44:00+00:00,30.0,4.21,27.0,5.89,12.33,47.59359,-54.27349
2023-11-16 03:54:00+00:00,36.0,6.64,40.0,7.46,12.33,47.59359,-54.27349
2023-11-16 04:04:00+00:00,42.0,5.56,39.0,6.75,12.33,47.59359,-54.27349
2023-11-16 04:14:00+00:00,50.0,6.71,68.0,8.88,12.25,47.59359,-54.27349
2023-11-16 04:24:00+00:00,37.0,5.4,39.0,6.54,12.25,47.59359,-54.27349
2023-11-16 04:34:00+00:00,40.0,6.1,53.0,8.8,12.25,47.59359,-54.27349
2023-11-16 04:44:00+00:00,37.0,7.31,41.0,8.44,12.25,47.59359,-54.27349
2023-11-16 04:54:00+00:00,22.0,5.37,17.0,7.93,12.25,47.59359,-54.27349
2023-11-16 05:04:00+00:00,29.0,6.88,27.0,8.19,12.25,47.59359,-54.27349
2023-11-16 05:14:00+00:00,17.0,6.38,16.0,7.66,12.25,47.59359,-54.27349
2023-11-16 05:24:00+00:00,22.0,5.4,23.0,6.54,12.25,47.59359,-54.27349
2023-11-16 05:34:00+00:00,346.0,6.88,350.0,7.59,12.25,47.59359,-54.27349
2023-11-16 05:44:00+00:00,0.0,6.65,6.0,7.83,12.25,47.59359,-54.27349
2023-11-16 05:54:00+00:00,354.0,6.53,345.0,7.48,12.25,47.59359,-54.27349
2023-11-16 06:04:00+00:00,350.0,8.03,355.0,9.31,12.25,47.59359,-54.27349
2023-11-16 06:14:01+00:00,358.0,7.34,351.0,8.6,12.17,47.59359,-54.27349
2023-11-16 06:24:01+00:00,351.0,6.61,350.0,7.45,12.17,47.59359,-54.27349
2023-11-16 06:34:01+00:00,355.0,7.35,353.0,8.79,12.17,47.59359,-54.27349
2023-11-16 06:44:01+00:00,351.0,7.15,355.0,8.87,12.17,47.59359,-54.27349
2023-11-16 06:54:01+00:00,351.0,7.77,352.0,9.92,12.17,47.59359,-54.27349
2023-11-16 07:04:01+00:00,355.0,6.68,359.0,7.85,12.17,47.59359,-54.27349
2023-11-16 07:14:00+00:00,351.0,7.6,356.0,9.09,12.17,47.59359,-54.27349
2023-11-16 07:24:00+00:00,353.0,6.91,347.0,8.4,12.17,47.59359,-54.27349
2023-11-16 07:34:00+00:00,351.0,6.41,2.0,7.83,12.17,47.59359,-54.27349
2023-11-16 07:44:00+00:00,359.0,7.47,0.0,9.02,12.17,47.59359,-54.27349
2023-11-16 07:54:00+00:00,6.0,5.85,1.0,7.46,12.17,47.59359,-54.27349
2023-11-16 08:04:00+00:00,2.0,5.35,4.0,6.56,12.17,47.59359,-54.27349
2023-11-16 08:14:00+00:00,2.0,4.84,1.0,6.36,12.17,47.59359,-54.27349
2023-11-16 08:24:00+00:00,26.0,5.04,29.0,5.96,12.17,47.59359,-54.27349
2023-11-16 08:34:00+00:00,356.0,5.11,357.0,5.66,12.17,47.59359,-54.27349
2023-11-16 08:44:00+00:00,359.0,5.64,357.0,7.36,12.17,47.59359,-54.27349
2023-11-16 08:54:00+00:00,353.0,5.65,5.0,6.6,12.17,47.59359,-54.27349
2023-11-16 09:04:00+00:00,355.0,5.63,343.0,7.15,12.17,47.59359,-54.27349
2023-11-16 09:14:00+00:00,351.0,6.25,359.0,7.35,12.09,47.59359,-54.27349
2023-11-16 09:24:00+00:00,0.0,5.65,3.0,6.55,12.09,47.59359,-54.27349
2023-11-16 09:34:00+00:00,0.0,6.06,4.0,6.82,12.09,47.59359,-54.27349
2023-11-16 09:44:00+00:00,4.0,6.02,10.0,7.17,12.09,47.59359,-54.27349
2023-11-16 09:54:00+00:00,357.0,5.98,358.0,7.07,12.09,47.59359,-54.27349
2023-11-16 10:04:00+00:00,359.0,5.77,354.0,6.98,12.09,47.59359,-54.27349
2023-11-16 10:14:00+00:00,4.0,5.69,11.0,6.52,12.09,47.59359,-54.27349
2023-11-16 10:24:00+00:00,357.0,5.41,6.0,6.59,12.09,47.59359,-54.27349
2023-11-16 10:34:00+00:00,2.0,5.76,357.0,6.42,12.09,47.59359,-54.27349
2023-11-16 10:44:00+00:00,2.0,4.84,6.0,5.82,12.09,47.59359,-54.27349
2023-11-16 10:54:00+00:00,4.0,4.83,3.0,5.5,12.09,47.59359,-54.27349
2023-11-16 11:04:00+00:00,7.0,4.61,3.0,5.04,12.09,47.59359,-54.27349
2023-11-16 11:14:01+00:00,7.0,4.57,1.0,5.23,12.25,47.59359,-54.27349
2023-11-16 11:24:01+00:00,10.0,4.73,9.0,5.64,12.25,47.59359,-54.27349
2023-11-16 11:34:01+00:00,3.0,4.71,356.0,5.47,12.25,47.59359,-54.27349
2023-11-16 11:44:01+00:00,357.0,4.81,357.0,5.41,12.25,47.59359,-54.27349
2023-11-16 11:54:01+00:00,356.0,4.37,9.0,5.12,12.25,47.59359,-54.27349
2023-11-16 12:04:01+00:00,19.0,4.31,21.0,4.84,12.25,47.59359,-54.27349
2023-11-16 12:14:01+00:00,352.0,4.42,352.0,5.23,13.6,47.59359,-54.27349
2023-11-16 12:24:01+00:00,354.0,4.03,0.0,4.6,13.6,47.59359,-54.27349
2023-11-16 12:34:01+00:00,1.0,3.35,3.0,4.13,13.6,47.59359,-54.27349
2023-11-16 12:44:01+00:00,328.0,3.71,326.0,5.0,13.6,47.59359,-54.27349
2023-11-16 12:54:01+00:00,326.0,3.41,321.0,4.94,13.6,47.59359,-54.27349
2023-11-16 13:04:01+00:00,304.0,3.43,313.0,4.27,13.6,47.59359,-54.27349
2023-11-16 13:14:00+00:00,314.0,3.6,315.0,4.3,13.84,47.59359,-54.27349
2023-11-16 13:24:00+00:00,345.0,3.14,353.0,3.72,13.84,47.59359,-54.27349
2023-11-16 13:34:00+00:00,332.0,2.07,338.0,2.94,13.84,47.59359,-54.27349
2023-11-16 13:44:00+00:00,313.0,2.25,303.0,2.77,13.84,47.59359,-54.27349
2023-11-16 13:54:00+00:00,306.0,2.12,305.0,2.58,13.84,47.59359,-54.27349
2023-11-16 14:04:00+00:00,254.0,1.68,250.0,2.13,13.84,47.59359,-54.27349
2023-11-16 14:14:00+00:00,292.0,1.61,298.0,2.21,13.76,47.59359,-54.27349
2023-11-16 14:24:00+00:00,299.0,1.74,302.0,2.53,13.76,47.59359,-54.27349
2023-11-16 14:34:00+00:00,265.0,1.57,249.0,2.39,13.76,47.59359,-54.27349
2023-11-16 14:44:00+00:00,234.0,2.21,239.0,3.02,13.76,47.59359,-54.27349
2023-11-16 14:54:00+00:00,240.0,2.32,248.0,2.97,13.76,47.59359,-54.27349
2023-11-16 15:04:00+00:00,252.0,2.48,234.0,3.1,13.76,47.59359,-54.27349
2023-11-16 15:14:00+00:00,252.0,2.47,254.0,3.18,13.6,47.59359,-54.27349
2023-11-16 15:24:00+00:00,234.0,1.51,237.0,2.09,13.6,47.59359,-54.27349
2023-11-16 15:34:00+00:00,201.0,1.58,217.0,1.96,13.6,47.59359,-54.27349
2023-11-16 15:44:00+00:00,227.0,2.07,222.0,2.6,13.6,47.59359,-54.27349
2023-11-16 15:54:00+00:00,232.0,2.46,225.0,2.74,13.6,47.59359,-54.27349
2023-11-16 16:04:00+00:00,238.0,2.4,236.0,2.87,13.6,47.59359,-54.27349
2023-11-16 16:14:01+00:00,239.0,3.37,240.0,4.03,14.32,47.59359,-54.27349
2023-11-16 16:24:01+00:00,259.0,2.51,271.0,3.27,14.32,47.59359,-54.27349
2023-11-16 16:34:01+00:00,247.0,2.6,235.0,3.45,14.32,47.59359,-54.27349
2023-11-16 16:44:01+00:00,246.0,2.55,243.0,3.27,14.32,47.59359,-54.27349
2023-11-16 16:54:01+00:00,302.0,1.82,295.0,3.53,14.32,47.59359,-54.27349
2023-11-16 17:04:01+00:00,275.0,1.6,274.0,2.22,14.32,47.59359,-54.27349
2023-11-16 17:14:01+00:00,221.0,1.97,223.0,2.69,13.68,47.59359,-54.27349
2023-11-16 17:24:01+00:00,221.0,1.55,210.0,2.0,13.68,47.59359,-54.27349
2023-11-16 17:34:01+00:00,210.0,1.75,204.0,2.16,13.68,47.59359,-54.27349
2023-11-16 17:44:01+00:00,205.0,1.47,222.0,2.31,13.68,47.59359,-54.27349
2023-11-16 17:54:01+00:00,210.0,2.25,208.0,2.57,13.68,47.59359,-54.27349
2023-11-16 18:04:01+00:00,222.0,1.59,213.0,2.28,13.68,47.59359,-54.27349
2023-11-16 18:14:01+00:00,200.0,2.1,207.0,2.95,13.6,47.59359,-54.27349
2023-11-16 18:24:01+00:00,183.0,2.61,199.0,3.98,13.6,47.59359,-54.27349
2023-11-16 18:34:01+00:00,194.0,2.59,201.0,3.2,13.6,47.59359,-54.27349
2023-11-16 18:44:01+00:00,187.0,3.08,195.0,3.87,13.6,47.59359,-54.27349
2023-11-16 18:54:01+00:00,189.0,2.73,185.0,3.02,13.6,47.59359,-54.27349
2023-11-16 19:04:01+00:00,188.0,3.21,199.0,3.91,13.6,47.59359,-54.27349
2023-11-16 19:14:01+00:00,188.0,3.45,190.0,3.86,13.29,47.59359,-54.27349
2023-11-16 19:24:01+00:00,207.0,2.6,213.0,3.36,13.29,47.59359,-54.27349
2023-11-16 19:34:01+00:00,215.0,3.96,212.0,4.8,13.29,47.59359,-54.27349
2023-11-16 19:44:01+00:00,208.0,4.65,215.0,5.26,13.29,47.59359,-54.27349
2023-11-16 19:54:01+00:00,207.0,3.94,216.0,5.15,13.29,47.59359,-54.27349
2023-11-16 20:04:01+00:00,214.0,3.75,217.0,4.32,13.29,47.59359,-54.27349
2023-11-16 20:14:00+00:00,206.0,5.15,221.0,6.16,12.73,47.59359,-54.27349
2023-11-16 20:24:00+00:00,231.0,3.93,235.0,5.68,12.73,47.59359,-54.27349
2023-11-16 20:34:00+00:00,222.0,5.54,221.0,6.32,12.73,47.59359,-54.27349
2023-11-16 20:44:00+00:00,215.0,5.77,218.0,6.4,12.73,47.59359,-54.27349
2023-11-16 20:54:00+00:00,218.0,5.38,219.0,6.04,12.73,47.59359,-54.27349
2023-11-16 21:04:00+00:00,213.0,6.02,211.0,7.18,12.73,47.59359,-54.27349
2023-11-16 21:14:01+00:00,228.0,4.63,219.0,5.48,12.41,47.59359,-54.27349
2023-11-16 21:24:01+00:00,224.0,5.72,243.0,7.15,12.41,47.59359,-54.27349
2023-11-16 21:34:01+00:00,224.0,6.01,221.0,6.72,12.41,47.59359,-54.27349
2023-11-16 21:44:01+00:00,217.0,4.89,216.0,5.49,12.41,47.59359,-54.27349
2023-11-16 21:54:01+00:00,215.0,5.95,210.0,6.89,12.41,47.59359,-54.27349
2023-11-16 22:04:01+00:00,183.0,5.32,194.0,6.08,12.41,47.59359,-54.27349
2023-11-16 22:14:01+00:00,181.0,5.03,179.0,5.79,12.41,47.59359,-54.27349
2023-11-16 22:24:01+00:00,181.0,4.73,179.0,5.76,12.41,47.59359,-54.27349
2023-11-16 22:34:01+00:00,169.0,4.65,168.0,5.43,12.41,47.59359,-54.27349
2023-11-16 22:44:01+00:00,170.0,4.7,166.0,5.24,12.41,47.59359,-54.27349
2023-11-16 22:54:01+00:00,168.0,4.24,164.0,5.21,12.41,47.59359,-54.27349
2023-11-16 23:04:01+00:00,173.0,4.93,169.0,5.75,12.41,47.59359,-54.27349
2023-11-16 23:14:01+00:00,174.0,4.69,167.0,5.79,12.41,47.59359,-54.27349
2023-11-16 23:24:01+00:00,184.0,5.01,180.0,6.02,12.41,47.59359,-54.27349
2023-11-16 23:34:01+00:00,187.0,5.06,186.0,6.37,12.41,47.59359,-54.27349
2023-11-16 23:44:01+00:00,181.0,5.1,182.0,5.71,12.41,47.59359,-54.27349
2023-11-16 23:54:01+00:00,179.0,4.93,176.0,6.21,12.41,47.59359,-54.27349
